Welcome to the New NWS' Forecast!
Most changes are behind the scenes, but click here for differences you might notice.
Latest weather observations around

Vaiden Fld Airport (KA08)

Using International System of Units (Switch to English Units)
Date/ Time (CDT) Wind (kph) Vis. (km) Weather Sky Cond. Temp (°C) Rel. Humidity Wind Chill (°C) Heat Index (°C) Pressure Precip. (cm)
Air Dwpt 6 hour Altimeter (hPa) Sea level (hPa) 1 hr 3 hr 6 hr
Max Min
Oct 17 23:35 NNW 5 16.09 Clear   15 12     81%     1026.1        
Oct 17 23:15 NW 5 16.09 Clear   15 11     78%     1026.1        
Oct 17 22:55 NNW 5 16.09 Clear   15 11     76%     1025.7        
Oct 17 22:35 Calm 16.09 Mostly Cloudy BKN055 16 11     72%     1025.7        
Oct 17 22:15 Calm 16.09 Cloudy OVC055 17 11     70%     1026.1        
Oct 17 21:55 NNW 8 16.09 Cloudy OVC065 17 11     70%     1025.7        
Oct 17 21:35 NNW 8 16.09 Clear   17 11     70%     1025.7        
Oct 17 21:15 NNW 8 16.09 Clear   17 12     71%     1025.4        
Oct 17 20:55 NNW 11 16.09 Clear   17 12     70%     1025.4        
Oct 17 20:35 NNW 11 16.09 Cloudy BKN065 OVC075 17 12     73%     1025.1        
Oct 17 20:15 NW 11 16.09 Cloudy OVC085 17 12     73%     1025.4        
Oct 17 19:55 NNW 13 16.09 Cloudy BKN070 OVC085 17 13     75%     1025.1        
Oct 17 19:35 NW 9 16.09 Cloudy OVC070 18 13     73%     1025.1        
Oct 17 19:15 NW 13 16.09 Cloudy OVC070 18 13     73%     1024.7        
Oct 17 18:55 NW 15 16.09 Cloudy OVC070 18 13     74%     1024.7        
Oct 17 18:35 NW 13 16.09 Mostly Cloudy BKN070 18 14     76%     1024.4        
Oct 17 18:15 NW 15 16.09 Mostly Cloudy SCT060 BKN070 19 14     75%     1024.4        
Oct 17 17:55 WNW 11 16.09 Cloudy OVC060 19 15     74%     1024.1        
Oct 17 17:35 NNW 13 16.09 Cloudy OVC060 20 15     73%     1024.1        
Oct 17 17:15 N 9 16.09 Cloudy OVC060 20 14     71%     1023.7        
Oct 17 16:55 NNW 15 16.09 Cloudy OVC060 20 15     70%     1023.7        
Oct 17 16:35 N 11 16.09 Cloudy OVC050 21 15     72%     1023.4        
Oct 17 16:15 N 11 16.09 Cloudy BKN049 OVC060 21 16     73%     1023.4        
Oct 17 15:55 N 11 16.09 Cloudy BKN047 OVC060 21 16     73%     1023.4        
Oct 17 15:35 N 11 16.09 Cloudy OVC047 20 16     75%     1023.4        
Oct 17 15:15 N 13 16.09 Cloudy OVC045 20 16     74%     1023.4        
Oct 17 14:55 NNE 11 16.09 Cloudy OVC045 21 16     73%     1023.4        
Oct 17 14:35 N 13 16.09 Cloudy OVC045 20 16     75%     1023.4        
Oct 17 14:15 N 11 16.09 Cloudy OVC045 20 16     77%     1023.4        
Oct 17 13:55 NNE 11 16.09 Cloudy SCT013 BKN034 OVC045 20 16     80%     1023.7        
Oct 17 13:35 N 11 16.09 Cloudy SCT013 BKN032 OVC040 20 16     79%     1024.1        
Oct 17 13:15 NNW 15 16.09 Cloudy SCT013 BKN030 OVC037 20 16     79%     1024.1        
Oct 17 12:55 NW 9 16.09 Cloudy SCT011 BKN031 OVC036 20 17     83%     1024.4        
Oct 17 12:35 NNW 11 16.09 Cloudy OVC011 19 16     84%     1024.7        
Oct 17 12:15 NW 15 16.09 Cloudy OVC011 19 16     85%     1024.7        
Oct 17 11:55 N 15 16.09 Cloudy BKN009 OVC046 19 16     86%     1024.7        
Oct 17 11:35 NNW 11 16.09 Cloudy OVC009 19 17     88%     1024.7        
Oct 17 11:15 NW 11 16.09 Cloudy BKN009 OVC042 19 17     87%     1024.7        
Oct 17 10:55 NW 11 16.09 Cloudy SCT009 OVC040 19 16     86%     1024.4        
Oct 17 10:35 N 11 16.09 Cloudy SCT009 OVC040 19 16     84%     1024.4        
Oct 17 10:15 N 9 16.09 Cloudy OVC040 18 16     86%     1024.4        
Oct 17 09:55 N 13 16.09 Cloudy SCT010 OVC040 18 16     87%     1024.4        
Oct 17 09:35 NNW 11 16.09 Cloudy BKN008 OVC040 18 16     89%     1024.4        
Oct 17 09:15 NW 11 16.09 Cloudy OVC008 18 17     93%     1024.4        
Oct 17 08:55 NW 9 16.09 Cloudy OVC008 18 17     93%     1024.1        
Oct 17 08:35 N 11 16.09 Cloudy OVC008 17 17     95%     1023.4        
Oct 17 08:15 NNW 11 16.09 Cloudy OVC008 17 17     96%     1023.4        
Oct 17 07:55 NW 9 16.09 Cloudy OVC008 17 17     97%     1023        
Oct 17 07:35 NW 11 16.09 Cloudy BKN008 OVC040 17 17     97%     1022.7        
Oct 17 07:15 NNW 9 16.09 Cloudy SCT008 BKN040 OVC047 17 17     97%     1022.7        
Oct 17 06:55 NNW 9 16.09 Mostly Cloudy BKN045 BKN050 17 17     97%     1022.4        
Oct 17 06:35 Calm 16.09 Cloudy SCT010 BKN040 OVC047 17 16     96%     1022.4        
Oct 17 06:15 NW 9 16.09 Cloudy SCT010 SCT019 OVC040 17 17     97%     1022.4        
Oct 17 05:55 NW 9 16.09 Cloudy BKN019 OVC040 17 17     97%     1022.4        
Oct 17 05:35 NW 9 16.09 Cloudy BKN019 BKN026 OVC040 17 17     97%     1022.4        
Oct 17 05:15 NNW 9 16.09 Light Rain SCT009 OVC015 17 17     97%     1022        
Oct 17 04:55 NNW 13 16.09 Cloudy OVC007 17 17     97%     1022        
Oct 17 04:35 NW 13 16.09 Cloudy OVC007 17 17     98%     1021.7        
Oct 17 04:15 NW 13 16.09 Cloudy OVC007 17 17     99%     1021.7        
Oct 17 03:55 NNW 15 16.09 Cloudy OVC007 17 17     99%     1021.3        
Oct 17 03:35 NW 13 16.09 Cloudy SCT007 OVC015 17 17     99%     1021        
Oct 17 03:15 NW 9 16.09 Cloudy SCT007 OVC015 17 17     100%     1021        
Oct 17 02:55 NNW 9 16.09 Cloudy SCT007 BKN015 OVC080 17 17     100%     1021        
Oct 17 02:35 Calm 16.09 Cloudy SCT007 SCT015 OVC080 17 17     100%     1021.3        
Oct 17 02:15 NNW 11 16.09 Cloudy SCT034 BKN039 OVC080 17 17     99%     1021        
Oct 17 01:55 NNW 11 16.09 Cloudy SCT017 BKN039 OVC050 17 17     99%     1021        
Oct 17 01:35 NNW 11 16.09 Cloudy SCT017 SCT037 OVC050 17 17     99%     1021        
Oct 17 01:15 NW 11 16.09 Cloudy SCT044 OVC050 18 18     100%     1021        
Oct 17 00:55 NW 8 16.09 Cloudy BKN044 OVC050 18 18     100%     1020.7        
Oct 17 00:35 Calm 16.09 Mostly Cloudy BKN046 17 17     100%     1020.7        
Oct 17 00:15 NW 5 16.09 Clear CLR 17 17     100%     1020.7        
Oct 16 23:55 NW 5 16.09 Clear CLR 17 17     99%     1020.7        
Oct 16 23:35 Calm 16.09 Clear CLR 17 17     96%     1020.7        
Oct 16 22:55 Calm 16.09 Clear CLR 18 17     98%     1020.7        
Oct 16 22:35 Calm 16.09 Clear CLR 18 17     97%     1020.7        
Oct 16 22:15 NW 8 16.09 Partly Cloudy SCT039 18 17     95%     1021.3        
Oct 16 21:55 NW 5 16.09 Partly Cloudy SCT039 18 17     94%     1021        
Oct 16 21:35 WNW 13 16.09 Partly Cloudy SCT021 18 17     93%     1021        
Oct 16 21:15 WNW 15 16.09 Mostly Cloudy BKN019 19 17     92%     1020.7        
Oct 16 20:55 WNW 9 16.09 Cloudy OVC017 19 17     92%     1020.7        
Oct 16 20:35 NNE 5 16.09 Cloudy OVC013 19 18     93%     1020.7        
Oct 16 20:15 N 11 16.09 Cloudy OVC013 19 18     93%     1020.3        
Oct 16 19:55 NNW 11 16.09 Cloudy OVC013 19 17     93%     1020.3        
Oct 16 19:35 N 15 16.09 Clear   19 17     92%     1020.7        
Oct 16 19:15 NW 18 16.09 Clear   19 17     92%     1020.7        
Oct 16 18:55 NNW 21 16.09 Clear   19 17     88%     1020.3        
Oct 16 18:35 NW 21 16.09 Cloudy BKN018 OVC049 20 17     86%     1020        
Oct 16 18:15 NNW 18 16.09 Cloudy BKN020 OVC049 21 18     83%     1020        
Oct 16 17:55   16.09 Cloudy OVC022 22 18     81%   22 1019.7        
Oct 16 17:35   16.09 Mostly Cloudy BKN022 23 19     79%   23 1019.3        
Oct 16 17:15 NW 22 16.09 Clear CLR 24 20     75%   25 1019        
Oct 16 16:55 NW 17 16.09 Partly Cloudy SCT021 SCT065 25 20     73%   25 1019        
Oct 16 16:35 NW 11 16.09 Mostly Cloudy BKN021 26 20     70%   27 1018.6        
Oct 16 16:15 NNW 13 16.09 Partly Cloudy SCT021 SCT065 27 21     68%   29 1018.6        
Oct 16 15:55 NNW 5 16.09 Clear CLR 28 20     64%   29 1018.3        
Oct 16 15:35 Calm 16.09 Clear CLR 28 20     64%   30 1018.3        
Oct 16 15:15 Calm 16.09 Clear CLR 27 20     67%   28 1018.3        
Oct 16 14:55 Calm 16.09 Partly Cloudy SCT018 27 20     68%   28 1018.3        
Oct 16 14:35 Calm 16.09 Mostly Cloudy BKN016 26 20     69%   28 1018.6        
Oct 16 14:15 NNW 8 16.09 Cloudy OVC016 25 20     72%   26 1019        
Oct 16 13:55 N 5 16.09 Cloudy OVC016 26 20     68%   28 1019.3        
Oct 16 13:35 W 9 16.09 Cloudy OVC014 25 19     69%   26 1019.7        
Oct 16 13:15 Calm 16.09 Cloudy OVC014 25 20     71%   26 1019.7        
Oct 16 12:55 WNW 8 16.09 Cloudy OVC014 26 20     69%   26 1020        
Oct 16 12:35 Calm 16.09 Cloudy OVC012 25 20     72%   26 1020        
Oct 16 12:15 Calm 16.09 Cloudy OVC012 25 20     75%   25 1020.3        
Oct 16 11:55 NW 9 16.09 Cloudy OVC012 24 19     74%   24 1020.7        
Oct 16 11:35 NE 5 16.09 Cloudy OVC012 23 19     75%   24 1020.7        
Oct 16 11:15 NNE 5 16.09 Cloudy OVC012 23 19     78%   23 1020.7        
Oct 16 10:55 N 5 16.09 Cloudy OVC012 22 18     82%   22 1020.7        
Oct 16 10:35 NE 5 16.09 Cloudy OVC010 21 18     83%   22 1021        
Oct 16 10:15 WNW 9 16.09 Cloudy OVC010 20 18     88%     1021.3        
Oct 16 09:55 NNE 9 16.09 Cloudy OVC010 20 18     87%     1021.3        
Oct 16 09:35 NW 13 16.09 Cloudy OVC008 20 18     91%     1021.3        
Oct 16 09:15 NNW 13 16.09 Cloudy OVC006 20 18     92%     1021.3        
Oct 16 08:50 NNW 15 16.09 Cloudy OVC006 19 19     99%     1021        
Oct 16 08:35 N 11 16.09 Cloudy OVC006 19 19     99%     1020.7        
Oct 16 08:10 NW 8 16.09 Cloudy OVC006 19 19     99%     1020.7        
Oct 16 07:55 N 8 16.09 Cloudy OVC006 19 19     99%     1020.3        
Oct 16 07:35 NE 8 11.27 Cloudy OVC006 20 20     100%     1020        
Oct 16 07:15 N 9 11.27 Cloudy OVC006 20 20     100%     1020.3        
Oct 16 07:00 NW 11 11.27 Cloudy OVC006 20 20     100%     1020.3        
Oct 16 05:55 WNW 15 11.27 Cloudy OVC006 20 20     100%     1019.7        
Oct 16 05:35 WNW 17 11.27 Cloudy OVC006 21 21     100%     1019.7        
Oct 16 05:15 WNW 17 11.27 Cloudy OVC006 21 21     100%     1019.7        
Oct 16 04:55 WNW 17 11.27 Cloudy OVC006 21 21     100%     1019.3        
Oct 16 04:35 WNW 18 16.09 Cloudy OVC006 21 21     100%     1019.3        
Oct 16 04:15 WNW 18 16.09 Cloudy BKN006 OVC120 21 21     100%     1019        
Oct 16 03:55 NW 13 16.09 Cloudy SCT019 OVC120 21 21     100%     1018.6        
Oct 16 03:35 WNW 17 16.09 Cloudy BKN019 OVC120 21 21     100%   22 1019        
Oct 16 03:15 W 15 11.27 Cloudy BKN019 OVC120 21 21     100%   22 1019        
Oct 16 02:55 W 15 11.27 Mostly Cloudy BKN120 21 21     96%   22 1019        
Oct 16 02:30 Calm 8.05 Fog/Mist BKN110 21 21     96%   22 1019        
Oct 16 02:15 W 17 8.05 Fog/Mist BKN110 22 22     99%   23 1019        
Oct 16 01:55 W 17 6.44 Fog/Mist BKN110 22 22     98%   23 1019        
Oct 16 01:35 W 11 8.05 Fog/Mist SCT021 OVC110 22 21     95%   23 1019.3        
Oct 16 01:15 Calm 8.05 Fog/Mist SCT021 OVC090 22 21     95%   23 1019.3        
Oct 16 00:55 W 11 11.27 Cloudy OVC090 22 21     95%   23 1019.3       0
Oct 16 00:35 Calm 11.27 Cloudy SCT080 OVC100 22 22     97%   23 1019        
Oct 16 00:15 W 5 11.27 Cloudy OVC100 22 22     98%   23 1019.3        
Oct 15 23:55 Calm 11.27 Cloudy OVC100 22 22     98%   23 1019        
Oct 15 23:35 W 5 11.27 Cloudy OVC090 22 22     100%   23 1019.3        
Oct 15 23:15 Calm 16.09 Cloudy BKN090 OVC110 22 22     99%   23 1019.3        
Oct 15 22:55 NNW 8 16.09 Cloudy BKN090 OVC110 23 23     100%   23 1019.3        
Oct 15 22:35 Calm 16.09 Cloudy OVC090 23 21     93%   23 1019.7        
Oct 15 22:15 Calm 16.09 Light Rain SCT090 SCT120 23 22     94%   23 1019.3        
Oct 15 21:35 Calm 11.27 Rain SCT095 OVC120 23 22     95%   24 1020   0    
Oct 15 21:15 WNW 9 16.09 Light Rain BKN110 23 22     91%   24 1019.7   0    
Oct 15 20:55 NNW 9 16.09 Light Rain OVC110 24 23     96%   25 1019   0    
Oct 15 20:35 Calm 16.09 Light Rain SCT100 OVC120 24 23     92%   25 1019.3        
Oct 15 20:15 Calm 16.09 Light Rain BKN095 OVC120 25 22     88%   25 1019.3        
Oct 15 19:55 Calm 16.09 Cloudy OVC095 25 21     81%   25 1019        
Oct 15 19:35 Calm 16.09 Cloudy OVC095 25 21     79%   25 1018.6        
Oct 15 19:15 Calm 16.09 Cloudy SCT070 BKN085 OVC110 25 21     78%   26 1018.6        
Oct 15 18:55 Calm 16.09 Cloudy SCT070 OVC110 25 21     78%   26 1018.6        
Oct 15 18:35 Calm 16.09 Cloudy BKN070 OVC110 26 22     80%   26 1018.3        
Oct 15 18:15 Calm 16.09 Mostly Cloudy SCT046 BKN070 BKN110 26 22     76%   27 1018.3        
Oct 15 17:55 Calm 16.09 Partly Cloudy SCT046 27 22     75%   29 1018        
Oct 15 17:35 Calm 16.09 Partly Cloudy SCT050 SCT055 SCT070 28 22     69%   30 1017.6        
Oct 15 17:15 E 5 16.09 Cloudy OVC050 30 21     57%   32 1018        
Oct 15 16:55 N 9 16.09 Mostly Cloudy BKN050 BKN100 31 19     50%   33 1017.6        
Oct 15 16:35 NNW 8 16.09 Partly Cloudy SCT100 30 19     52%   32 1017.6        
Oct 15 16:15 WNW 5 16.09 Partly Cloudy SCT048 SCT060 SCT100 31 20     50%   33 1017.6        
Oct 15 15:55 NNW 8 16.09 Mostly Cloudy SCT040 SCT048 BKN095 31 20     52%   32 1017.6        
Oct 15 15:35 N 8 16.09 Partly Cloudy SCT095 32 20     50%   35 1017.6        
Oct 15 15:15 WNW 9 16.09 Clear CLR 31 20     52%   33 1017.6        
Oct 15 14:55 NNW 13 16.09 Partly Cloudy SCT038 SCT090 32 21     51%   35 1017.6        
Oct 15 14:35 NW 11 16.09 Partly Cloudy SCT090 31 20     54%   33 1017.6        
Oct 15 14:15 W 15 16.09 Partly Cloudy SCT038 SCT049 SCT060 31 21     55%   34 1017.6        
Oct 15 13:55 NW 13 16.09 Mostly Cloudy SCT036 BKN049 BKN060 31 21     57%   33 1018        
Oct 15 13:35 W 9 16.09 Mostly Cloudy SCT032 SCT040 BKN050 30 21     58%   33 1018        
Oct 15 13:15 W 8 16.09 Mostly Cloudy SCT034 SCT043 BKN065 30 22     60%   33 1018.3        
Oct 15 12:55 W 13 16.09 Cloudy SCT030 BKN036 OVC070 30 21     60%   33 1018.6        
Oct 15 12:35 W 11 16.09 Mostly Cloudy SCT036 BKN045 BKN055 29 21     63%   31 1019        
Oct 15 12:15   16.09 Mostly Cloudy SCT023 SCT028 BKN055 28 21     65%   31 1019        
Oct 15 11:55   16.09 Cloudy SCT021 BKN037 OVC055 30 22     61%   33 1019        
Oct 15 11:35 SW 5 16.09 Mostly Cloudy SCT021 SCT037 BKN060 29 22     63%   32 1019.3        
Oct 15 11:15 Calm 16.09 Partly Cloudy SCT012 SCT033 28 22     70%   31 1019.7        
Oct 15 10:55 WSW 5 16.09 Mostly Cloudy SCT009 BKN012 BKN033 26 22     78%   28 1020        
Oct 15 10:35 SSW 8 16.09 Cloudy OVC007 24 22     89%   25 1020        
Oct 15 10:15 SSW 8 16.09 Cloudy OVC005 24 23     95%   24 1019.7        
Oct 15 09:55 S 8 16.09 Cloudy OVC003 23 23     98%   24 1020        
Oct 15 09:35 S 11 11.27 Cloudy OVC003 22 22     100%   23 1019.7        
Oct 15 09:15 S 9 4.02 Fog/Mist OVC003 21 21     100%   22 1019.7        
Oct 15 08:55 S 9 8.05 Fog/Mist OVC003 21 21     100%     1019.3        
Oct 15 08:35 SSE 8 16.09 Cloudy OVC005 20 20     100%     1019        
Oct 15 08:15 S 8 16.09 Cloudy OVC007 19 19     100%     1019        
Oct 15 07:55 Calm 16.09 Cloudy OVC009 18 18     97%     1019        
Oct 15 07:35 Calm 16.09 Cloudy BKN007 OVC015 18 17     95%     1019        
Oct 15 07:15 Calm 16.09 Cloudy OVC017 18 17     96%     1018.6        
Oct 15 06:55 Calm 16.09 Mostly Cloudy BKN017 BKN021 17 16     94%     1018.3        
Oct 15 06:35 Calm 11.27 Clear CLR 17 16     92%     1018        
Oct 15 06:15 Calm 16.09 Clear CLR 17 16     91%     1018        
Oct 15 05:55 Calm 16.09 Clear   17 16     91%     1017.6        
Oct 15 05:35 Calm 16.09 Clear CLR 17 16     91%     1017.6        
Oct 15 05:15 Calm 16.09 Clear CLR 17 16     91%     1017.3        
Oct 15 04:55 Calm 16.09 Clear CLR 17 16     92%     1017.3        
Oct 15 04:35 Calm 16.09 Clear CLR 17 16     91%     1017.3        
Oct 15 04:15 Calm 16.09 Clear CLR 17 15     89%     1017.3        
Oct 15 03:55 Calm 16.09 Clear CLR 18 16     89%     1017.3        
Oct 15 03:35 S 5 16.09 Clear CLR 18 16     89%     1016.9        
Oct 15 03:15 S 8 16.09 Clear CLR 18 16     88%     1017.3        
Oct 15 02:55 S 9 16.09 Clear CLR 18 16     87%     1017.3        
Oct 15 02:35 Calm 16.09 Clear CLR 18 16     88%     1017.6        
Oct 15 02:15 S 8 16.09 Clear CLR 18 16     86%     1017.6        
Oct 15 01:55 S 9 16.09 Clear CLR 18 15     84%     1017.6        
Oct 15 01:35 SSW 9 16.09 Clear CLR 18 15     83%     1017.6        
Oct 15 01:15 SSW 9 16.09 Clear CLR 18 15     81%     1017.6        
Oct 15 00:55   16.09 Clear CLR 19 16     83%     1017.3        
Oct 15 00:35 S 8 16.09 Clear   19 15     81%     1017.6        
Oct 15 00:15 Calm 16.09 Clear CLR 19 15     81%     1017.6        
Oct 14 23:55 Calm 16.09 Clear   19 16     82%     1017.3        
Oct 14 23:35 S 11 16.09 Clear CLR 19 16     82%     1017.3        
Oct 14 23:15 Calm 16.09 Clear CLR 19 17     85%     1017.6        
Oct 14 22:55 Calm 16.09 Clear CLR 20 16     78%     1017.3        
Oct 14 22:35 Calm 16.09 Clear CLR 20 17     81%     1017.3        
Oct 14 22:15 Calm 16.09 Mostly Cloudy BKN120 21 16     77%     1017.6        
Oct 14 21:55 Calm 16.09 Cloudy OVC120 21 17     78%     1017.3        
Oct 14 21:35 Calm 16.09 Cloudy OVC120 21 17     78%     1017.3        
Oct 14 21:15 Calm 16.09 Partly Cloudy SCT120 22 17     77%   22 1017.3        
Oct 14 20:55 Calm 16.09 Clear CLR 22 18     79%   22 1016.9        
Oct 14 20:35 Calm 16.09 Clear CLR 22 18     77%   23 1016.6        
Oct 14 20:15 SE 8 16.09 Clear CLR 22 18     78%   22 1016.6        
Oct 14 19:55 SE 5 16.09 Clear CLR 22 17     72%   22 1016.3        
Oct 14 19:35 Calm 16.09 Clear CLR 23 16     65%   23 1016.3        
Oct 14 19:15 Calm 16.09 Clear CLR 24 18     71%   24 1015.9        
Oct 14 18:55 Calm 16.09 Clear CLR 24 16     61%   24 1015.9        
Oct 14 18:35 Calm 16.09 Clear CLR 26 17     59%   26 1015.9        
Oct 14 18:15 SSE 8 16.09 Mostly Cloudy BKN120 27 17     54%   28 1015.6        
Oct 14 17:55 SSE 8 16.09 Cloudy OVC120 29 17     50%   29 1015.6        
Oct 14 17:35 SSE 13 16.09 Mostly Cloudy BKN120 30 17     46%   30 1015.2        
Oct 14 17:15 S 11 16.09 Clear CLR 29 17     48%   29 1015.2        
Oct 14 16:55 S 11 16.09 Partly Cloudy SCT120 30 18     49%   30 1015.2        
Oct 14 16:35 SSW 9 16.09 Clear CLR 30 16     41%   30 1015.2        
Oct 14 16:15 S 13 16.09 Clear CLR 32 16     39%   31 1015.2        
Oct 14 15:55 SSE 13 16.09 Partly Cloudy SCT120 32 17     39%   32 1015.6        
Oct 14 15:35 S 5 16.09 Mostly Cloudy BKN120 32 16     39%   32 1015.6        
Oct 14 15:15 S 9 16.09 Mostly Cloudy BKN120 32 16     38%   32 1015.6        
Oct 14 14:55 S 17 16.09 Mostly Cloudy BKN120 31 16     40%   31 1015.6        
Oct 14 14:35 SSW 13 16.09 Mostly Cloudy BKN120 30 17     44%   30 1015.6        
Oct 14 14:15 SSW 15 16.09 Mostly Cloudy BKN120 31 16     42%   31 1015.6        
Oct 14 13:55   16.09 Cloudy OVC120 31 16     40%   30 1015.6        
Oct 14 13:35 SW 15 16.09 Mostly Cloudy BKN110 30 15     41%   30 1015.9        
Oct 14 13:15 S 11 16.09 Clear CLR 31 16     42%   31 1015.9        
Oct 14 12:55 SSE 11 16.09 Clear CLR 30 17     44%   31 1016.3        
Oct 14 12:35 S 13 16.09 Clear CLR 30 16     44%   30 1016.6        
Oct 14 12:15 SE 9 16.09 Clear CLR 30 17     48%   30 1016.6        
Oct 14 11:55 S 11 16.09 Clear CLR 30 17     47%   30 1016.9        
Oct 14 11:35 SSW 8 16.09 Clear CLR 29 17     49%   29 1017.3        
Oct 14 11:15 S 5 16.09 Clear CLR 28 17     52%   29 1017.3        
Oct 14 10:55 Calm 16.09 Clear CLR 27 17     53%   28 1017.6        
Oct 14 10:35 S 9 16.09 Clear CLR 26 16     55%   26 1017.6        
Oct 14 10:15 S 8 16.09 Clear CLR 25 16     59%   25 1017.6        
Oct 14 09:55 Calm 16.09 Clear CLR 24 16     61%   24 1017.6        
Oct 14 09:35 S 11 16.09 Partly Cloudy SCT120 23 16     65%   23 1017.3        
Oct 14 09:15 S 13 16.09 Partly Cloudy SCT120 22 16     69%   22 1016.9        
Oct 14 08:55 SSE 11 16.09 Partly Cloudy SCT120 21 16     72%     1016.9        
Oct 14 08:35 SSE 17 16.09 Partly Cloudy SCT110 20 18     90%     1016.6        
Oct 14 08:15 SE 5 16.09 Mostly Cloudy BKN110 18 17     94%     1016.6        
Oct 14 07:55 Calm 16.09 Cloudy OVC110 18 18     98%     1016.6        
Oct 14 07:35 Calm 16.09 Cloudy OVC100 17 16     91%     1016.6        
Oct 14 07:15 Calm 16.09 Cloudy BKN100 OVC120 16 15     96%     1016.6        
Oct 14 06:55 Calm 16.09 Cloudy SCT100 OVC120 16 15     94%     1015.9        
Oct 14 06:35 Calm 16.09 Mostly Cloudy BKN110 16 14     93%     1016.3        
Oct 14 06:15 Calm 16.09 Mostly Cloudy SCT100 BKN120 16 15     93%     1016.3        
Oct 14 05:55 Calm 16.09 Cloudy OVC120 16 15     94%     1015.9        
Oct 14 05:35 Calm 16.09 Cloudy OVC110 16 15     96%     1015.2        
Oct 14 05:15 SE 5 16.09 Mostly Cloudy BKN100 15 14     92%     1015.2        
Oct 14 04:55 Calm 16.09 Partly Cloudy SCT100 16 14     90%     1015.2        
Oct 14 04:35 Calm 16.09 Clear CLR 16 14     91%     1015.2        
Oct 14 04:15 Calm 16.09 Clear CLR 16 14     89%     1015.2        
Oct 14 03:55 Calm 16.09 Clear CLR 16 14     90%     1014.9        
Oct 14 03:35 Calm 16.09 Clear CLR 16 14     90%     1015.2        
Oct 14 03:15 Calm 16.09 Clear CLR 16 15     91%     1015.2        
Oct 14 02:55 Calm 16.09 Clear CLR 16 14     89%     1014.9        
Oct 14 02:35 Calm 16.09 Partly Cloudy SCT100 17 15     90%     1014.9        
Oct 14 02:15 Calm 16.09 Partly Cloudy SCT100 17 15     88%     1014.9        
Oct 14 01:55 SE 5 16.09 Clear CLR 17 15     90%     1014.2        
Oct 14 01:35 Calm 16.09 Clear CLR 17 15     89%     1014.2        
Oct 14 01:15 Calm 16.09 Clear CLR 17 15     89%     1014.6        
Oct 14 00:55 Calm 16.09 Clear CLR 17 15     90%     1014.2        
Oct 14 00:35 Calm 16.09 Clear CLR 16 15     92%     1014.6        
Oct 14 00:15 Calm 16.09 Clear CLR 16 14     86%     1014.6        
Oct 13 23:55 Calm 16.09 Clear CLR 17 14     87%     1014.9        
Oct 13 23:35 Calm 16.09 Clear CLR 17 14     85%     1014.6        
Oct 13 23:15 Calm 16.09 Clear CLR 17 15     87%     1014.2        
Oct 13 22:55 SSE 9 16.09 Clear CLR 17 15     89%     1014.2        
Oct 13 22:35 Calm 16.09 Clear CLR 17 14     82%     1015.6        
Oct 13 22:15 Calm 16.09 Clear CLR 17 13     79%     1015.2        
Oct 13 21:55 Calm 16.09 Clear CLR 17 13     79%     1014.9        
Oct 13 21:35 Calm 16.09 Clear CLR 17 13     76%     1014.9        
Oct 13 21:15 Calm 16.09 Clear CLR 17 13     75%     1015.2        
Oct 13 20:55 Calm 16.09 Clear CLR 17 12     70%     1014.9        
Oct 13 20:35 Calm 16.09 Clear CLR 18        %     1014.9        
Oct 13 20:15 Calm 16.09 Clear CLR 18        %     1014.9        
Oct 13 19:55 Calm 16.09 Clear CLR 18 12     67%     1014.6        
Oct 13 19:35 W 13 16.09 Clear CLR 19        %     1014.6        
Oct 13 19:15 W 8 16.09 Clear CLR 20        %     1014.2        
Oct 13 18:55 SSW 11 16.09 Clear CLR 21        %     1013.9        
Oct 13 18:35 S 5 16.09 Clear CLR 22 12     52%   22 1013.6        
Oct 13 18:15 SSW 15 16.09 Clear CLR 24 14     52%   24 1013.2        
Oct 13 17:55 SSW 17 16.09 Clear CLR 26 13     45%   26 1013.2        
Oct 13 17:35 S 9 16.09 Clear CLR 27 13     42%   26 1012.9        
Oct 13 17:15 Calm 16.09 Clear CLR 27 12     40%   27 1012.9        
Oct 13 16:55 W 5 16.09 Clear CLR 28 12     38%   28 1012.9        
Oct 13 16:35 Calm 16.09 Clear CLR 28 12     37%   28 1013.2        
Oct 13 16:15 W 8 16.09 Clear CLR 29 13     36%   28 1013.2        
Oct 13 15:55 Calm 16.09 Clear CLR 28 12     37%   27 1013.6        
Oct 13 15:35 S 9 16.09 Clear CLR 29 12     35%   28 1013.6        
Oct 13 15:15 Calm 16.09 Clear CLR 29 12     34%   28 1013.6        
Oct 13 14:55 W 5 16.09 Clear CLR 28 12     37%   27 1013.6        
Oct 13 14:35 Calm 16.09 Clear CLR 27 12     37%   27 1013.6        
Oct 13 14:15 W 9 16.09 Clear CLR 29 12     36%   28 1013.9        
Oct 13 13:55 Calm 16.09 Clear CLR 28 13     38%   28 1014.2        
Oct 13 13:35 Calm 16.09 Clear CLR 28 12     38%   27 1014.6        
Oct 13 13:15 WSW 9 16.09 Clear CLR 27 12     40%   27 1014.9        
Oct 13 12:55 NNW 5 16.09 Clear CLR 26 12     40%   26 1015.2        
Oct 13 12:35 Calm 16.09 Clear CLR 27 12     39%   27 1015.2        
Oct 13 12:15 Calm 16.09 Clear CLR 27 12     39%   27 1015.6        
Oct 13 11:55 W 8 16.09 Clear CLR 27 11     38%   26 1015.6        
Oct 13 11:35 Calm 16.09 Clear CLR 26 11     40%   26 1015.9        
Oct 13 11:15 Calm 16.09 Clear CLR 25 11     41%   25 1016.3        
Oct 13 10:55 NNW 5 16.09 Clear CLR 25 10     40%   24 1016.3        
Oct 13 10:35 Calm 16.09 Clear CLR 24 10     44%   23 1016.3        
Oct 13 10:15 NE 5 16.09 Clear CLR 23 11     47%   23 1015.9        
Oct 13 09:55 NE 5 16.09 Clear CLR 22 11     49%   22 1016.3        
Oct 13 09:35 N 5 16.09 Clear CLR 22 11     52%   21 1016.3        
Oct 13 09:15 Calm 16.09 Clear CLR 21 11     54%     1016.3        
Oct 13 08:55 NNW 5 16.09 Clear CLR 20 12     62%     1015.9        
Notice The following observation data may not be complete
Oct 13 08:35 N 5 16.09 Clear CLR   11      %     1015.9        
Oct 13 06:15 Calm 16.09 Clear CLR 12 10     88%     1015.2        
Oct 13 05:35 NNW 5 16.09 Clear CLR 12 11     95%     1014.9        
Oct 13 05:15 Calm 16.09 Clear CLR 12 10     86%     1014.6        
Oct 13 04:55 Calm 16.09 Clear CLR 12 10     90%     1014.6        
Notice The following observation data may not be complete
Oct 13 04:15   16.09 Clear CLR          %              
Notice The following observation data may not be complete
Oct 13 03:35   16.09 Clear CLR          %              
Oct 13 03:15 Calm 16.09 Clear CLR 13 10     83%     1013.9        
Oct 13 02:35 Calm 16.09 Partly Cloudy SCT070 14 12     89%     1013.9        
Oct 13 02:15 Calm 16.09 Mostly Cloudy BKN070 14 11     81%     1013.9        
Notice The following observation data may not be complete
Oct 13 01:15   16.09 Mostly Cloudy BKN090          %              
Oct 13 00:55 Calm 16.09 Cloudy OVC090 16 14     86%     1013.6        
Oct 13 00:15 Calm 16.09 Cloudy OVC090 15 13     85%     1013.6        
Oct 12 23:55 Calm 16.09 Cloudy OVC100 15 12     84%     1013.6        
Oct 12 23:15 Calm 16.09 Cloudy OVC110 15 13     89%     1013.9        
Oct 12 22:15 Calm 16.09 Clear CLR 14 12     91%     1014.2        
Oct 12 21:15 Calm 16.09 Clear CLR 15 10     73%     1014.2        
Oct 12 19:35 Calm 16.09 Clear CLR 16 9     64%     1013.2        
Oct 12 19:15 Calm 16.09 Clear CLR 17 9     59%     1012.9        
Notice The following observation data may not be complete
Oct 12 18:55   16.09 Clear CLR          %              
Oct 12 18:35 W 5 16.09 Clear CLR 20 9     51%     1012.9        
Notice The following observation data may not be complete
Oct 12 17:55 W 5 16.09 Clear CLR   10      %     1012.5        
Oct 12 16:55 WNW 13 16.09 Clear CLR 25 9     37%   25 1012.9        
Oct 12 16:35 NW 15 16.09 Clear CLR 25 9     35%   25 1012.9        
Notice The following observation data may not be complete
Oct 12 15:15   16.09 Clear CLR          %              
Oct 12 13:15 NW 5 16.09 Clear CLR 24 8     36%   24 1014.6        
Oct 12 12:55 NW 8 16.09 Clear CLR 24 9     37%   24 1014.9        
Notice The following observation data may not be complete
Oct 12 12:15   16.09 Clear CLR          %              
Oct 12 11:55 Calm 16.09 Clear CLR 22 8     41%   21 1015.9        
Oct 12 11:15 ENE 5 16.09 Clear CLR 20 8     45%     1016.6        
Notice The following observation data may not be complete
Oct 12 10:55   16.09 Clear CLR          %              
Oct 12 10:15 E 5 16.09 Clear CLR 19 8     50%     1016.6        
Oct 12 09:55 Calm 16.09 Clear CLR 18 9     55%     1016.6        
Oct 12 09:35 NE 5 16.09 Clear CLR 17 9     60%     1016.9        
Oct 12 08:15 Calm 16.09 Clear CLR 13 10     81%     1016.6        
Oct 12 07:55 NW 11 16.09 Clear CLR 12 11     89%     1016.6        
Oct 12 06:55 WNW 17 16.09 Clear CLR 10 9     99% 7   1016.3        
Oct 12 05:55 WNW 17 16.09 Clear CLR 10 9     99% 7   1015.9        
Notice The following observation data may not be complete
Oct 12 04:35   16.09 Clear CLR          %              
Notice The following observation data may not be complete
Oct 12 04:15   16.09 Clear CLR          %              
Oct 12 02:15 NW 9 16.09 Clear CLR 12 11     94%     1015.9        
Oct 11 23:15 NNW 9 16.09 Clear CLR 15 12     83%     1015.6        
Notice The following observation data may not be complete
Oct 11 18:15   16.09 Clear CLR          %              
Oct 11 17:00 NW 26 16.09 Clear CLR 25 13     46%   25 1012.5        
Oct 11 13:15 NW 18 16.09 Clear CLR 26 15     51%   26 1012.9        
Oct 11 12:15 WNW 21 16.09 Clear CLR 25 15     54%   25 1013.6        
Oct 11 11:15 WNW 15 16.09 Clear CLR 24 16     61%   24 1013.6        
Oct 11 10:55 NW 24 16.09 Partly Cloudy SCT023 23 16     62%   23 1013.9        
Oct 11 07:55 WNW 17 16.09 Partly Cloudy SCT012 20 18     87%     1011.5        
Notice The following observation data may not be complete
May 15 12:15   16.09 Partly Cloudy SCT075          %              
May 15 07:35 ESE 8 16.09 Clear CLR 22 19     83%   22 1014.6        
May 15 04:35 E 5 16.09 Clear   20 19     93%     1013.9        
May 15 00:35   16.09 Clear CLR 22 19     82%   23 1013.2        
May 14 23:55 SSE 5 16.09 Clear CLR 23 19     76%   24 1013.6        
May 13 20:35 Calm 16.09 Clear CLR 25 19     68%   26 1016.3        
May 13 15:35 NNW 5 16.09 Partly Cloudy SCT070 33 16     36%   33 1016.9        
May 13 15:15 W 11 16.09 Clear CLR 33 16     36%   33 1017.3        
May 13 14:35 N 9 16.09 Clear CLR 33 16     35%   33 1018        
May 13 08:15 NNW 9 16.09 Clear CLR 25 18     67%   25 1020        
May 13 06:15 Calm 16.09 Clear CLR 16 16     99%     1019.3        
May 13 04:55 Calm 16.09 Clear CLR 16 16     100%     1018        
May 12 21:35 Calm 16.09 Clear CLR 22 15     65%   22 1018.6        
May 12 17:15 SE 5 16.09 Clear CLR 32 12     30%   31 1018        
May 12 15:55 SSE 15 16.09 Clear   32 12     29%   31 1018.6        
May 12 05:35 Calm 16.09 Clear CLR 14 14     99%     1020        
May 12 01:55 Calm 16.09 Clear CLR 17 16     97%     1018.3        
Notice The following observation data may not be complete
May 12 00:35   16.09 Clear CLR          %              
May 11 23:55 SSW 13 16.09 Clear CLR 19 16     84%     1019        
May 11 22:15 Calm 16.09 Clear CLR 21 17     78%     1018.6        
Notice The following observation data may not be complete
May 11 11:15   16.09 Clear CLR          %              
Jun 11 22:55   16.09 Clear CLR 23 23     100%   24 1019.7        
Notice The following observation data may not be complete
Jun 11 18:15   11.27 Light Rain SCT046 SCT065 OVC110          %         0    
Notice The following observation data may not be complete
Jun 11 17:35   16.09 Light Rain SCT027 SCT032 OVC048   22      %     1018.3        
Jun 11 16:55 ESE 11 16.09 Mostly Cloudy BKN048 BKN055 31 21     55%   35 1017.3        
Jun 11 15:15 E 11 16.09 Partly Cloudy SCT050 31 20     52%   34 1018.3        
Notice The following observation data may not be complete
Jun 11 14:35   16.09 Mostly Cloudy BKN050          %              
Jun 11 10:15 SSE 17 16.09 Clear CLR 28 19     60%   29 1020.3        
Jun 10 10:15 SSE 5 16.09 Clear CLR 27 19     64%   28 1018        
Jun 10 08:55   0.4 Cloudy OVC080 24 20     76%   25 1018        
Jun 10 08:35 Calm 0.4 Cloudy OVC080 23 20     81%   24 1017.6        
Jun 10 03:55 Calm 16.09 Partly Cloudy SCT075 18 18     100%     1015.2        
Jun 10 02:35 Calm 16.09 Cloudy SCT065 OVC075 18 18     100%     1015.2        
Jun 10 01:55 S 11 16.09 Cloudy OVC075 18 18     97%     1015.2        
Notice The following observation data may not be complete
Jun 09 23:35   16.09 Clear CLR          %              
Notice The following observation data may not be complete
Jun 09 20:35   16.09 Clear CLR          %              
Jun 09 16:15 Calm 16.09 Clear CLR 28 14     43%   28 1013.2        
Jun 09 11:35   16.09 Clear CLR 26 15     51%   26 1015.2        
Jun 09 03:35 Calm 16.09 Clear CLR 15 15     97%     1012.2        
Jun 09 02:55 WNW 5 16.09 Clear   16 15     99%     1012.5        
Jun 09 02:35 Calm 16.09 Clear CLR 16 15     97%     1012.5        
Jun 09 00:15 NNW 9 16.09 Clear CLR 18 15     83%     1012.9        
Jun 08 23:55 NNW 5 16.09 Clear CLR 18 16     85%     1012.9        
Jun 08 16:50 NW 9 16.09 Clear CLR 27 14     45%   26 1011.2        
Jun 08 13:30 WNW 18 16.09 Partly Cloudy SCT050 26 15     50%   26 1012.5        
Jun 08 07:55 N 5 16.09 Clear   19 14     71%     1013.2        
Jun 08 03:15 N 9 16.09 Clear CLR 18 13     73%     1010.5        
Jun 07 17:50   16.09 Clear CLR 28 15     47%   28 1008.8        
Jun 07 08:15 N 11 16.09 Clear CLR 22 18     78%   22 1008.8        
Jun 06 14:55 NE 5 16.09 Rain SCT005 BKN047 OVC070 21 21     99%   22 1006.4   2    
Jun 06 09:15   16.09 Cloudy OVC005 24 23     94%   25 1008.1        
Jun 05 19:35 SSE 8 16.09 Light Rain SCT050 SCT065 BKN095 21 21     99%     1008.1   0